Location: B?dargowo
(53.3916°N, 14.4413°E)
Time: 21:28:20
(UTC+00:00)

IRIDIUM 33 DEB - Visible Passes

Search period start: 27 February 2024 00:00
Search period end: 08 March 2024 00:00
Orbit: 725 x 758 km, 86.4° (Epoch: 26 February)

Date Brightness Start Highest point End Pass type
(mag) Time Alt. Az. Time Alt. Az. Time Alt. Az.
28 Feb ? 22:16:19 10° N 22:16:24 10° N 22:16:24 10° N visible
29 Feb ? 21:32:20 10° N 21:32:31 11° N 21:32:31 11° N visible
01 Mar ? 22:28:03 10° N 22:28:20 12° N 22:28:20 12° N visible
02 Mar ? 21:43:53 10° N 21:44:26 13° N 21:44:26 13° N visible
03 Mar ? 21:00:01 10° NNE 21:00:32 13° NNE 21:00:32 13° NNE visible
03 Mar ? 22:39:51 10° NNW 22:40:16 12° NNW 22:40:16 12° NNW visible
04 Mar ? 21:55:30 10° N 21:56:21 15° N 21:56:21 15° N visible
05 Mar ? 21:11:25 10° N 21:12:27 16° N 21:12:27 16° N visible
05 Mar ? 22:51:44 10° NNW 22:52:10 12° NNW 22:52:10 12° NNW visible
06 Mar ? 20:27:40 10° NNE 20:28:32 14° NNE 20:28:32 14° NNE visible
06 Mar ? 22:07:10 10° N 22:08:15 17° NNW 22:08:15 17° NNW visible
07 Mar ? 21:22:54 10° N 21:24:20 19° N 21:24:20 19° N visible
07 Mar ? 23:03:46 10° NNW 23:04:03 11° NNW 23:04:03 11° NNW visible
